Vorticity
6 6 7 5 5 9 7 6 8 6 8 7 9 2 9 8 9 8 9 6 8 7 5 3 3 16 14 13 14 28 9 30 52 36 17 17 19 13 10 7 16 13 10 8
7 11 4 6 5 4 8 7 6 7 5 5 5 5 7 9 8 8 6 8 8 7 5 4 4 18 17 11 19 13 26 27 35 24 25 13 13 11 11 5 18 18 9 11
7 8 7 6 6 5 5 8 8 7 4 7 8 11 12 8 7 8 8 9 7 6 4 3 9 12 17 10 14 16 31 18 25 17 15 18 13 11 6 12 20 12 10 8
5 7 9 7 5 8 7 7 7 7 7 6 6 9 22 13 17 2 8 8 7 6 4 5 10 16 17 14 14 11 21 17 10 12 15 12 11 7 8 17 16 9 9 7
10 7 5 7 8 5 7 7 7 7 6 7 11 8 2 9 12 7 10 7 7 6 5 4 9 17 19 15 12 14 10 14 14 14 11 14 6 9 9 14 14 11 7 9
15 16 7 6 8 8 8 8 5 6 6 8 4 6 11 12 9 8 10 7 7 6 6 3 9 17 18 7 26 7 16 14 14 17 17 11 8 13 8 11 13 3 3 2
6 1 9 12 5 8 6 7 8 6 5 5 3 8 7 13 6 12 10 7 6 7 5 5 8 17 15 8 -1 15 14 8 10 11 11 8 9 8 12 9 11 5 10 18
6 3 8 5 11 9 4 3 3 5 6 6 4 4 10 8 7 13 9 6 7 8 5 6 7 14 18 10 15 4 24 21 14 14 10 9 6 8 13 16 16 12 23 21
14 12 14 8 6 9 10 6 5 4 6 5 5 7 7 8 10 11 8 6 6 8 6 6 6 11 13 15 12 12 5 5 31 28 16 19 18 18 24 18 19 55 33 6
10 11 6 10 11 5 5 5 6 6 6 6 6 5 5 12 12 8 9 6 6 9 8 5 6 7 11 18 13 12 12 12 12 1 -1 6 28 27 52 54 45 22 51 2
10 17 5 8 7 11 3 8 9 4 4 3 3 4 4 11 7 7 9 6 6 9 8 6 6 6 11 12 19 14 8 9 9 9 13 -3 7 18 7 33 4 5 13 23
18 -11 -1 5 6 10 14 1 6 6 -0 5 7 6 6 6 4 9 9 6 7 10 9 8 5 5 7 12 11 13 11 11 12 13 10 16 5 3 10 9 35 25 28 23
-2 -2 14 1 1 1 3 11 13 11 7 5 3 4 3 5 7 8 8 6 6 11 10 7 7 5 6 10 14 11 9 9 11 10 11 14 11 4 7 14 18 25 1 5
12 20 11 -1 28 20 7 9 14 9 9 1 7 3 1 8 6 7 8 5 6 13 11 7 7 6 5 7 11 12 10 9 10 15 18 17 7 10 8 3 8 16 32 -1
12 21 12 17 12 4 8 4 7 18 2 8 -3 10 -0 6 8 9 8 5 5 13 10 9 6 7 6 4 7 9 12 14 11 11 14 2 2 6 13 13 4 13 16 12
12 -22 46 24 33 24 -0 9 11 11 10 5 6 2 -2 10 9 6 8 6 6 13 10 10 8 7 7 8 6 6 7 6 9 10 10 11 8 17 12 22 3 -6 5 6
-11 17 -23 -11 -13 9 11 4 2 3 19 19 9 -5 10 3 13 5 10 9 8 14 11 10 9 8 8 8 8 8 6 6 5 3 4 8 11 10 6 4 8 7 7 7
9 -24 -10 19 -23 40 23 4 9 14 5 19 9 2 6 4 -1 6 7 7 9 10 11 10 10 9 9 9 8 8 8 7 7 7 7 7 7 8 9 8 8 8 9 9
40 12 10 -13 24 41 0 15 6 15 8 12 13 10 -0 8 7 6 5 8 9 9 12 8 9 8 9 10 10 8 7 7 7 7 6 6 5 6 6 6 6 7 6 7
42 33 -14 -6 32 4 -4 18 2 -6 23 8 7 20 4 9 8 13 7 7 8 11 9 7 8 8 10 10 10 9 10 9 8 7 6 7 8 7 8 7 6 5 4 6
26 57 40 5 -17 12 20 37 9 13 -2 15 17 7 12 8 -26 11 8 6 8 11 9 10 11 8 12 11 12 12 11 11 11 10 10 9 8 7 7 8 9 9 8 8
22 12 46 20 13 28 9 33 26 -1 10 -7 41 7 7 11 1 -4 8 6 6 9 10 11 10 10 10 5 4 7 13 13 10 9 9 9 10 9 11 10 11 9 9 9
34 8 -6 69 28 -11 -12 62 28 4 12 2 40 -2 27 3 7 -0 1 4 6 7 12 13 9 8 4 1 3 5 7 10 10 10 9 9 9 10 11 10 10 12 11 11
58 -10 4 0 74 5 -38 27 25 7 28 4 27 29 17 11 4 3 -0 6 7 4 12 12 12 9 7 5 7 8 8 9 11 10 7 8 9 9 8 7 9 10 10 10
16 31 -12 -1 18 69 2 6 1 22 -23 33 -14 18 13 14 6 8 7 2 6 4 9 10 12 12 13 10 10 9 8 8 12 11 7 6 6 8 7 5 9 7 7 8
-7 53 4 1 11 39 22 -19 -28 21 18 -13 38 -2 5 6 10 10 10 4 6 5 7 12 15 9 8 8 8 9 8 11 10 13 5 4 5 8 9 10 13 12 8 7
Height
5791 5795 5796 5794 5795 5796 5796 5796 5797 5795 5792 5793 5796 5797 5795 5792 5791 5790 5790 5788 5785 5780 5775 5770 5762 5755 5748 5739 5732 5723 5713 5703 5695 5698 5707 5717 5726 5736 5742 5749 5754 5760 5768 5773
5787 5791 5786 5788 5789 5790 5791 5791 5790 5790 5788 5786 5788 5790 5788 5786 5785 5785 5784 5783 5779 5775 5770 5765 5757 5750 5742 5735 5728 5718 5709 5702 5698 5698 5704 5711 5720 5729 5736 5743 5749 5754 5761 5770
5778 5784 5781 5782 5783 5782 5784 5785 5784 5785 5782 5783 5780 5785 5782 5781 5779 5778 5778 5777 5773 5769 5764 5759 5752 5744 5737 5732 5725 5715 5708 5703 5703 5705 5709 5714 5720 5727 5731 5737 5743 5750 5756 5762
5768 5776 5774 5774 5776 5776 5777 5776 5778 5778 5777 5778 5775 5775 5778 5774 5776 5772 5772 5771 5767 5763 5759 5754 5747 5740 5735 5729 5722 5714 5710 5707 5707 5709 5712 5717 5721 5725 5729 5734 5739 5745 5751 5758
5765 5765 5764 5766 5769 5768 5773 5770 5771 5771 5771 5773 5774 5765 5776 5771 5771 5769 5768 5766 5762 5759 5756 5751 5743 5737 5732 5726 5720 5715 5711 5710 5710 5711 5714 5717 5720 5724 5727 5731 5735 5740 5747 5752
5756 5756 5756 5761 5762 5762 5764 5765 5764 5763 5764 5769 5767 5763 5770 5767 5767 5765 5764 5761 5758 5756 5753 5747 5740 5734 5730 5725 5720 5715 5712 5711 5710 5712 5715 5718 5721 5723 5725 5727 5731 5735 5741 5746
5742 5746 5747 5749 5753 5754 5756 5757 5757 5756 5757 5762 5762 5760 5763 5762 5762 5762 5760 5756 5754 5752 5749 5744 5738 5732 5728 5725 5722 5715 5712 5711 5711 5712 5714 5717 5719 5721 5722 5725 5728 5732 5735 5739
5727 5732 5739 5742 5743 5747 5746 5747 5750 5748 5750 5755 5758 5757 5756 5756 5755 5756 5755 5751 5749 5747 5745 5742 5736 5731 5727 5724 5722 5718 5713 5711 5711 5712 5713 5714 5714 5715 5717 5720 5722 5725 5730 5734
5715 5717 5725 5727 5732 5736 5737 5737 5746 5739 5743 5745 5752 5752 5753 5750 5749 5750 5748 5746 5744 5744 5742 5740 5735 5730 5727 5723 5722 5719 5716 5714 5710 5711 5712 5713 5711 5710 5709 5708 5711 5716 5723 5730
5703 5702 5710 5714 5717 5723 5723 5730 5731 5732 5736 5738 5744 5744 5748 5746 5745 5745 5745 5743 5741 5741 5740 5737 5733 5729 5726 5723 5721 5719 5716 5714 5713 5713 5712 5710 5707 5707 5707 5705 5708 5715 5721 5725
5684 5690 5697 5698 5700 5712 5716 5719 5723 5724 5726 5731 5736 5738 5743 5745 5743 5741 5741 5740 5738 5738 5737 5735 5732 5728 5725 5723 5721 5719 5717 5716 5715 5714 5714 5712 5709 5709 5708 5707 5709 5715 5720 5725
5665 5670 5676 5686 5691 5698 5706 5707 5710 5710 5718 5723 5725 5731 5737 5738 5739 5739 5738 5736 5735 5735 5734 5733 5731 5728 5725 5723 5722 5720 5718 5716 5715 5715 5714 5713 5712 5712 5711 5711 5712 5716 5721 5725
5646 5652 5662 5670 5675 5678 5684 5692 5699 5703 5708 5712 5717 5726 5731 5732 5734 5734 5734 5733 5731 5733 5732 5731 5729 5727 5725 5723 5722 5721 5719 5717 5716 5715 5715 5715 5714 5713 5715 5716 5716 5717 5721 5725
5630 5639 5643 5652 5668 5672 5672 5683 5688 5694 5700 5706 5708 5719 5724 5726 5728 5729 5730 5730 5727 5730 5729 5729 5727 5726 5725 5724 5723 5721 5720 5719 5717 5717 5717 5717 5716 5715 5715 5716 5719 5721 5722 5726
5622 5626 5633 5639 5649 5656 5664 5670 5677 5682 5690 5692 5707 5708 5714 5718 5721 5724 5725 5726 5724 5726 5726 5726 5726 5725 5725 5724 5723 5722 5721 5721 5720 5719 5720 5720 5720 5719 5717 5717 5718 5721 5724 5727
5602 5611 5617 5620 5632 5640 5645 5655 5663 5669 5675 5682 5694 5697 5705 5709 5713 5718 5719 5721 5721 5722 5722 5723 5723 5723 5723 5723 5723 5722 5721 5721 5721 5721 5720 5720 5720 5720 5720 5722 5722 5722 5724 5726
5586 5595 5602 5605 5618 5624 5624 5639 5653 5660 5666 5675 5685 5698 5701 5704 5708 5711 5713 5716 5718 5719 5719 5720 5721 5721 5721 5722 5722 5722 5722 5721 5721 5720 5720 5721 5721 5721 5721 5722 5723 5724 5725 5727
5569 5574 5584 5587 5597 5596 5619 5634 5643 5650 5657 5667 5677 5688 5691 5698 5702 5704 5708 5711 5714 5715 5716 5716 5718 5718 5719 5720 5720 5720 5720 5721 5721 5721 5720 5720 5721 5721 5722 5723 5724 5725 5727 5728
5555 5561 5569 5571 5583 5590 5602 5618 5631 5639 5649 5659 5668 5677 5683 5690 5694 5698 5702 5706 5710 5712 5713 5714 5715 5715 5716 5717 5718 5718 5719 5720 5720 5720 5720 5721 5722 5722 5723 5723 5724 5725 5726 5726
5541 5546 5550 5562 5570 5573 5596 5610 5618 5630 5627 5648 5658 5668 5676 5682 5688 5696 5697 5701 5705 5708 5710 5710 5711 5712 5713 5714 5715 5716 5717 5718 5718 5718 5719 5720 5721 5721 5722 5722 5722 5722 5722 5723
5527 5533 5537 5550 5556 5561 5584 5596 5605 5611 5627 5638 5647 5660 5667 5671 5688 5687 5690 5695 5699 5702 5705 5708 5709 5709 5710 5712 5713 5714 5715 5716 5717 5717 5718 5719 5719 5719 5719 5720 5720 5721 5720 5721
5515 5519 5530 5538 5544 5547 5580 5584 5592 5609 5619 5631 5635 5646 5654 5665 5675 5679 5684 5689 5694 5697 5701 5704 5706 5707 5708 5709 5711 5712 5713 5713 5714 5715 5715 5716 5716 5717 5717 5718 5718 5718 5718 5717
5502 5510 5516 5527 5534 5568 5568 5575 5587 5590 5602 5616 5621 5628 5639 5653 5664 5671 5678 5683 5688 5692 5696 5700 5703 5704 5705 5707 5708 5709 5710 5711 5712 5713 5713 5714 5714 5715 5715 5716 5716 5716 5715 5715
5496 5500 5503 5510 5523 5538 5555 5564 5572 5580 5591 5601 5610 5621 5630 5641 5653 5663 5671 5677 5683 5688 5691 5695 5699 5701 5702 5704 5705 5706 5708 5709 5710 5710 5710 5711 5711 5712 5713 5713 5714 5713 5711 5710
5487 5491 5497 5502 5513 5524 5538 5552 5564 5573 5584 5585 5598 5611 5623 5634 5643 5654 5664 5671 5677 5682 5686 5690 5694 5696 5698 5700 5702 5703 5705 5706 5708 5710 5709 5709 5710 5711 5711 5710 5710 5709 5708 5706
5480 5483 5486 5498 5509 5515 5527 5541 5550 5554 5566 5581 5590 5602 5614 5626 5635 5647 5656 5664 5671 5677 5682 5686 5690 5693 5695 5696 5698 5700 5702 5703 5706 5707 5707 5707 5708 5708 5708 5708 5707 5706 5704 5702